TimeCDT,TemperatureF,Dew PointF,Humidity,Sea Level PressureIn,VisibilityMPH,Wind Direction,Wind SpeedMPH,Gust SpeedMPH,PrecipitationIn,Events,Conditions,WindDirDegrees,DateUTC
12:16 AM,41.0,19.4,42,29.77,10.0,South,5.8,-,N/A,,Overcast,190,2012-10-08 05:16:00
12:36 AM,41.0,19.4,42,29.76,10.0,South,4.6,-,N/A,,Overcast,180,2012-10-08 05:36:00
12:57 AM,41.0,19.4,42,29.76,10.0,South,4.6,-,N/A,,Overcast,180,2012-10-08 05:57:00
1:16 AM,41.0,19.4,42,29.76,10.0,South,4.6,-,N/A,,Overcast,180,2012-10-08 06:16:00
1:37 AM,41.0,19.4,42,29.75,10.0,South,5.8,-,N/A,,Overcast,180,2012-10-08 06:37:00
1:57 AM,39.2,19.4,45,29.74,10.0,South,5.8,-,N/A,,Overcast,180,2012-10-08 06:57:00
2:16 AM,39.2,19.4,45,29.74,10.0,South,5.8,-,N/A,,Mostly Cloudy,190,2012-10-08 07:16:00
2:37 AM,39.2,19.4,45,29.74,10.0,South,4.6,-,N/A,,Mostly Cloudy,180,2012-10-08 07:37:00
2:57 AM,39.2,19.4,45,29.73,10.0,South,8.1,-,N/A,,Overcast,180,2012-10-08 07:57:00
3:16 AM,39.2,19.4,45,29.72,10.0,South,6.9,-,N/A,,Overcast,190,2012-10-08 08:16:00
3:37 AM,39.2,19.4,45,29.71,10.0,South,8.1,-,N/A,,Overcast,190,2012-10-08 08:37:00
3:56 AM,39.2,19.4,45,29.70,10.0,South,9.2,-,N/A,,Mostly Cloudy,190,2012-10-08 08:56:00
4:17 AM,39.2,19.4,45,29.70,10.0,South,6.9,-,N/A,,Scattered Clouds,190,2012-10-08 09:17:00
4:37 AM,39.2,21.2,49,29.69,10.0,South,4.6,-,N/A,,Scattered Clouds,180,2012-10-08 09:37:00
4:56 AM,39.2,21.2,49,29.69,10.0,South,8.1,-,N/A,,Clear,190,2012-10-08 09:56:00
5:17 AM,39.2,21.2,49,29.69,10.0,South,5.8,-,N/A,,Scattered Clouds,190,2012-10-08 10:17:00
5:37 AM,39.2,21.2,49,29.68,10.0,SSW,4.6,-,N/A,,Mostly Cloudy,200,2012-10-08 10:37:00
5:57 AM,39.2,21.2,49,29.68,10.0,SSW,6.9,-,N/A,,Mostly Cloudy,200,2012-10-08 10:57:00
6:16 AM,39.2,21.2,49,29.68,10.0,South,4.6,-,N/A,,Mostly Cloudy,190,2012-10-08 11:16:00
6:36 AM,37.4,21.2,52,29.68,10.0,South,3.5,-,N/A,,Mostly Cloudy,170,2012-10-08 11:36:00
6:57 AM,37.4,21.2,52,29.67,10.0,South,3.5,-,N/A,,Overcast,170,2012-10-08 11:57:00
7:16 AM,37.4,21.2,52,29.67,10.0,South,3.5,-,N/A,,Mostly Cloudy,170,2012-10-08 12:16:00
7:37 AM,37.4,23.0,56,29.67,10.0,SSE,3.5,-,N/A,,Mostly Cloudy,160,2012-10-08 12:37:00
7:57 AM,37.4,23.0,56,29.67,10.0,Calm,Calm,-,N/A,,Scattered Clouds,0,2012-10-08 12:57:00
8:16 AM,37.4,23.0,56,29.66,10.0,SE,3.5,-,N/A,,Clear,140,2012-10-08 13:16:00
8:37 AM,37.4,23.0,56,29.66,10.0,SSE,4.6,-,N/A,,Scattered Clouds,160,2012-10-08 13:37:00
8:57 AM,39.2,24.8,56,29.65,10.0,SSE,3.5,-,N/A,,Scattered Clouds,160,2012-10-08 13:57:00
9:16 AM,39.2,24.8,56,29.64,10.0,SSE,4.6,-,N/A,,Mostly Cloudy,160,2012-10-08 14:16:00
9:37 AM,41.0,24.8,53,29.63,10.0,SSE,3.5,-,N/A,,Mostly Cloudy,160,2012-10-08 14:37:00
9:57 AM,42.8,24.8,49,29.63,10.0,SSE,4.6,-,N/A,,Scattered Clouds,160,2012-10-08 14:57:00
10:16 AM,42.8,24.8,49,29.62,10.0,South,6.9,-,N/A,,Clear,170,2012-10-08 15:16:00
10:37 AM,42.8,24.8,49,29.61,10.0,Calm,Calm,-,N/A,,Scattered Clouds,0,2012-10-08 15:37:00
10:56 AM,42.8,26.6,53,29.61,10.0,SE,6.9,-,N/A,,Scattered Clouds,140,2012-10-08 15:56:00
11:17 AM,44.6,26.6,49,29.60,10.0,SE,8.1,-,N/A,,Scattered Clouds,140,2012-10-08 16:17:00
11:37 AM,44.6,26.6,49,29.59,10.0,SSE,5.8,-,N/A,,Scattered Clouds,150,2012-10-08 16:37:00
11:56 AM,46.4,28.4,50,29.58,10.0,SSE,8.1,-,N/A,,Scattered Clouds,150,2012-10-08 16:56:00
12:17 PM,46.4,30.2,53,29.58,10.0,SE,8.1,-,N/A,,Light Drizzle,140,2012-10-08 17:17:00
12:56 PM,42.8,35.6,76,29.56,10.0,SE,6.9,-,N/A,Rain,Rain,130,2012-10-08 17:56:00
1:17 PM,42.8,37.4,81,29.55,10.0,SSE,5.8,-,N/A,Rain,Light Rain,150,2012-10-08 18:17:00
1:36 PM,42.8,37.4,81,29.54,10.0,SSE,5.8,-,0.01,Rain,Rain,150,2012-10-08 18:36:00
1:57 PM,42.8,37.4,81,29.54,10.0,SSE,4.6,-,N/A,Rain,Rain,160,2012-10-08 18:57:00
2:17 PM,41.0,37.4,87,29.52,10.0,SE,5.8,9.2,0.01,Rain,Light Rain,140,2012-10-08 19:17:00
2:36 PM,41.0,37.4,87,29.51,7.0,SE,6.9,-,0.02,Rain,Heavy Rain,140,2012-10-08 19:36:00
2:57 PM,41.0,37.4,87,29.51,10.0,SSE,8.1,-,N/A,Rain,Light Rain,150,2012-10-08 19:57:00
3:17 PM,41.0,39.2,93,29.52,7.0,South,3.5,-,0.01,Rain,Rain,170,2012-10-08 20:17:00
3:36 PM,41.0,37.4,87,29.51,5.0,SSE,5.8,-,0.02,Rain,Rain,150,2012-10-08 20:36:00
3:57 PM,41.0,37.4,87,29.51,10.0,SSE,9.2,-,N/A,Rain,Rain,160,2012-10-08 20:57:00
4:17 PM,39.2,37.4,93,29.52,10.0,South,10.4,18.4,0.01,Rain,Rain,170,2012-10-08 21:17:00
4:36 PM,39.2,37.4,93,29.52,10.0,South,6.9,-,0.02,Rain,Light Rain,170,2012-10-08 21:36:00
4:57 PM,39.2,37.4,93,29.51,10.0,South,5.8,-,N/A,Rain,Rain,170,2012-10-08 21:57:00
5:16 PM,39.2,37.4,93,29.51,7.0,South,5.8,-,N/A,,Drizzle,170,2012-10-08 22:16:00
5:37 PM,39.2,37.4,93,29.51,10.0,South,4.6,-,N/A,,Drizzle,180,2012-10-08 22:37:00
5:57 PM,39.2,39.2,100,29.51,4.0,SSW,6.9,-,N/A,,Light Drizzle,210,2012-10-08 22:57:00
6:16 PM,39.2,39.2,100,29.51,2.0,SSW,5.8,-,N/A,,Drizzle,200,2012-10-08 23:16:00
6:37 PM,41.0,39.2,93,29.51,7.0,SSW,5.8,-,N/A,,Light Drizzle,210,2012-10-08 23:37:00
6:57 PM,41.0,39.2,93,29.51,5.0,South,8.1,-,N/A,,Overcast,190,2012-10-08 23:57:00
7:37 PM,41.0,39.2,93,29.53,7.0,WSW,5.8,-,0.01,,Overcast,240,2012-10-09 00:37:00
8:16 PM,42.8,41.0,93,29.54,10.0,WSW,8.1,-,N/A,,Overcast,250,2012-10-09 01:16:00
8:37 PM,42.8,41.0,93,29.55,10.0,West,8.1,-,N/A,,Overcast,260,2012-10-09 01:37:00
9:16 PM,42.8,39.2,87,29.56,10.0,West,10.4,-,N/A,,Overcast,270,2012-10-09 02:16:00
9:37 PM,41.0,39.2,93,29.57,10.0,West,8.1,-,N/A,,Overcast,260,2012-10-09 02:37:00
9:57 PM,41.0,39.2,93,29.57,10.0,West,8.1,-,N/A,,Overcast,260,2012-10-09 02:57:00
10:16 PM,41.0,39.2,93,29.58,10.0,West,8.1,-,N/A,,Overcast,260,2012-10-09 03:16:00
10:57 PM,41.0,37.4,87,29.58,10.0,West,5.8,-,N/A,,Overcast,260,2012-10-09 03:57:00
11:37 PM,39.2,37.4,93,29.59,10.0,WSW,6.9,-,N/A,,Overcast,250,2012-10-09 04:37:00
11:56 PM,39.2,37.4,93,29.59,10.0,WSW,4.6,-,N/A,,Overcast,250,2012-10-09 04:56:00